Left ArrowRight Arrow

34.16533, -84.80231

Hourly Observations for June 16, 2024

Temp ( °F °C ) Dew Point ( °F °C ) Humidity (%) Winds ( mph kmh ) Pressure ( in mb ) Visibility ( mi km ) Precip ( " mm )
12:15 am 00:15 Clear 77 25 72 22 83 83 Calm 29.97 1015 10 16 0.00 0.00
12:35 am 00:35 Clear 77 25 72 22 83 83 Calm 29.99 1016 10 16 0.00 0.00
12:55 am 00:55 Clear 79 26 70 21 74 74 E 3 6 29.99 1015 10 16 0.00 0.00
1:15 am 01:15 Clear 79 26 70 21 74 74 Calm 29.99 1015 10 16 0.00 0.00
1:35 am 01:35 Clear 79 26 70 21 74 74 Calm 29.99 1015 10 16 0.00 0.00
1:55 am 01:55 Clear 79 26 70 21 74 74 ESE 6 9 29.99 1015 10 16 0.00 0.00
2:15 am 02:15 Clear 79 26 70 21 74 74 Calm 29.99 1015 10 16 0.00 0.00
2:35 am 02:35 Mostly Clear 77 25 70 21 79 79 Calm 29.98 1015 7 11 0.00 0.00
2:55 am 02:55 Mostly Clear 75 24 70 21 83 83 Calm 29.98 1015 9 14 0.00 0.00
3:15 am 03:15 Clear 75 24 70 21 83 83 Calm 29.98 1015 8 13 0.00 0.00
3:35 am 03:35 Mostly Clear 75 24 70 21 83 83 Calm 29.99 1016 8 13 0.00 0.00
3:55 am 03:55 Mostly Clear 73 23 70 21 89 89 ESE 3 6 29.99 1016 9 14 0.00 0.00
4:15 am 04:15 Mostly Clear 73 23 70 21 89 89 Calm 29.99 1016 9 14 0.00 0.00
4:35 am 04:35 Partly Cloudy 73 23 70 21 89 89 Calm 29.98 1015 8 13 0.00 0.00
4:55 am 04:55 Partly Cloudy 73 23 70 21 89 89 Calm 29.99 1016 9 14 0.00 0.00
5:15 am 05:15 Partly Cloudy 73 23 68 20 83 83 Calm 29.99 1016 9 14 0.00 0.00
5:35 am 05:35 Clear 72 22 70 21 94 94 Calm 30.01 1016 9 14 0.00 0.00
5:55 am 05:55 Mostly Clear 72 22 70 21 94 94 E 5 7 30.02 1016 10 16 0.00 0.00
6:15 am 06:15 Clear 73 23 70 21 89 89 Calm 30.02 1017 10 16 0.00 0.00
6:35 am 06:35 Mostly Sunny 75 24 70 21 83 83 Calm 30.03 1017 10 16 0.00 0.00
6:55 am 06:55 Mostly Sunny 73 23 70 21 89 89 Calm 30.04 1017 10 16 0.00 0.00
7:15 am 07:15 Sunny 73 23 70 21 89 89 E 6 9 30.04 1017 10 16 0.00 0.00
7:35 am 07:35 Mostly Cloudy 75 24 70 21 83 83 E 6 9 30.04 1017 10 16 0.00 0.00
7:55 am 07:55 Mostly Cloudy 75 24 70 21 83 83 E 5 7 30.05 1018 10 16 0.00 0.00
8:15 am 08:15 Partly Cloudy 77 25 70 21 79 79 ESE 5 7 30.06 1018 10 16 0.00 0.00
8:35 am 08:35 Mostly Sunny 77 25 72 22 83 83 E 6 9 30.06 1018 10 16 0.00 0.00
8:55 am 08:55 Sunny 79 26 72 22 79 79 VRB 6 9 30.06 1018 10 16 0.00 0.00
9:15 am 09:15 Sunny 81 27 72 22 74 74 VRB 6 9 30.06 1018 10 16 0.00 0.00
9:35 am 09:35 Sunny 82 28 72 22 70 70 E 7 11 30.06 1018 10 16 0.00 0.00
9:55 am 09:55 Sunny 82 28 72 22 70 70 VRB 5 7 30.07 1018 10 16 0.00 0.00
10:15 am 10:15 Sunny 86 30 72 22 62 62 VRB 6 9 30.07 1018 10 16 0.00 0.00
10:35 am 10:35 Sunny 86 30 72 22 62 62 SE 5 7 30.06 1018 10 16 0.00 0.00
10:55 am 10:55 Sunny 88 31 70 21 55 55 SSE 8 13 30.06 1018 10 16 0.00 0.00
11:15 am 11:15 Sunny 90 32 72 22 56 56 SE 8 13 30.06 1018 10 16 0.00 0.00
11:35 am 11:35 Sunny 88 31 70 21 55 55 VRB 6 9 30.06 1018 10 16 0.00 0.00
11:55 am 11:55 Sunny 90 32 70 21 52 52 VRB 6 9 30.06 1018 10 16 0.00 0.00
12:15 pm 12:15 Sunny 91 33 70 21 49 49 SSE 8 13 30.05 1018 10 16 0.00 0.00
12:35 pm 12:35 Sunny 93 34 70 21 47 47 VRB 7 11 30.05 1018 10 16 0.00 0.00
12:55 pm 12:55 Sunny 91 33 68 20 46 46 SSW 7 11 30.05 1018 10 16 0.00 0.00
1:15 pm 13:15 Sunny 93 34 68 20 44 44 Calm 30.05 1018 10 16 0.00 0.00
1:35 pm 13:35 Sunny 93 34 70 21 47 47 SSW 6 9 30.04 1017 10 16 0.00 0.00
1:55 pm 13:55 Sunny 93 34 68 20 44 44 VRB 5 7 30.03 1017 10 16 0.00 0.00
2:15 pm 14:15 Mostly Sunny 95 35 66 19 39 39 VRB 5 7 30.01 1016 10 16 0.00 0.00
2:35 pm 14:35 Mostly Sunny 95 35 66 19 39 39 ESE 10 17 30.00 1016 10 16 0.00 0.00
2:55 pm 14:55 Sunny 95 35 66 19 39 39 Calm 29.99 1016 10 16 0.00 0.00
3:15 pm 15:15 Mostly Sunny 91 33 70 21 49 49 E 9 15 30.00 1016 10 16 0.00 0.00
3:35 pm 15:35 Sunny 93 34 68 20 44 44 ESE 12 19 29.99 1015 10 16 0.00 0.00
3:55 pm 15:55 Mostly Sunny 91 33 70 21 49 49 E 10 17 29.99 1016 10 16 0.00 0.00
4:15 pm 16:15 Sunny 90 32 68 20 49 49 ESE 8 13 29.99 1016 10 16 0.00 0.00
4:35 pm 16:35 Partly Cloudy with Light Rain 88 31 72 22 59 59 S 14 22 30.00 1016 6 10 0.00 0.00
4:55 pm 16:55 Sunny with Light Rain 77 25 70 21 79 79 SSW 8 13 30.02 1017 5 8 0.03 0.76
5:15 pm 17:15 Partly Cloudy with Light Rain 77 25 72 22 83 83 VRB 3 6 30.02 1017 7 11 0.00 0.00
5:35 pm 17:35 Partly Cloudy with Light Rain 77 25 73 23 89 89 S 5 7 30.02 1017 9 14 0.00 0.00
5:55 pm 17:55 Partly Cloudy with Light Rain 77 25 73 23 89 89 E 3 6 30.02 1017 6 10 0.03 0.76
6:15 pm 18:15 Partly Cloudy 77 25 73 23 89 89 Calm 30.01 1016 10 16 0.00 0.00
6:35 pm 18:35 Mostly Cloudy 81 27 72 22 74 74 SSW 6 9 30.02 1017 9 14 0.00 0.00
6:55 pm 18:55 Mostly Cloudy with Heavy Rain 77 25 72 22 83 83 ESE 8 13 30.03 1017 2 3 0.07 1.78
7:15 pm 19:15 Partly Cloudy with Light Rain 75 24 73 23 94 94 Calm 30.03 1017 6 10 0.00 0.00
7:35 pm 19:35 Mostly Sunny 75 24 73 23 94 94 Calm 30.04 1017 9 14 0.00 0.00
7:55 pm 19:55 Mostly Cloudy 77 25 73 23 89 89 Calm 30.03 1017 10 16 0.09 2.29
8:15 pm 20:15 Partly Cloudy with Mist and Fog 75 24 73 23 94 94 E 8 13 30.03 1017 6 10 0.00 0.00
8:35 pm 20:35 Mostly Sunny 75 24 73 23 94 94 Calm 30.02 1017 9 14 0.00 0.00
8:55 pm 20:55 Clear with Mist and Fog 75 24 73 23 94 94 Calm 30.03 1017 6 10 0.00 0.00
9:15 pm 21:15 Partly Cloudy 75 24 73 23 94 94 Calm 30.03 1017 8 13 0.00 0.00
9:35 pm 21:35 Cloudy 75 24 73 23 94 94 Calm 30.04 1017 7 11 0.00 0.00
9:55 pm 21:55 Mostly Cloudy with Mist and Fog 75 24 73 23 94 94 Calm 30.06 1018 6 10 0.00 0.00
10:15 pm 22:15 Mostly Cloudy with Mist and Fog 75 24 73 23 94 94 Calm 30.06 1018 5 8 0.00 0.00
10:35 pm 22:35 Mostly Cloudy with Mist and Fog 75 24 73 23 94 94 Calm 30.07 1018 6 10 0.00 0.00
10:55 pm 22:55 Mostly Cloudy with Mist and Fog 75 24 73 23 94 94 Calm 30.07 1018 4 6 0.00 0.00
11:15 pm 23:15 Cloudy with Mist and Fog 75 24 75 24 100 100 Calm 30.08 1019 5 8 0.00 0.00
11:35 pm 23:35 Cloudy with Mist and Fog 75 24 73 23 94 94 Calm 30.08 1019 6 10 0.00 0.00
11:55 pm 23:55 Partly Cloudy with Mist and Fog 75 24 73 23 94 94 Calm 30.08 1019 6 10 0.00 0.00

Powered by Vaisala Xweather